www.pogodaiklimat.ru

Погода и климат >> Архив погоды >> Россия >> Чувашия >> Канаш


ПОГОДА в Канаше

  • Прогноз погоды в Канаше
  • Монитор погоды в Канаше

АРХИВ ПОГОДЫ в Канаше

Время (UTC), дата Ветер
(напр.,м/с)
 
Видим.   Явления Облачность Т
(С)
Тd
(С)
f
(%)
Тe
(С)
Тes
(С)
Комфортность P
(гПа)
Po
(гПа)
Тmin
(С)
Tmax
(С)
R
(мм)
R24
(мм)
S
(см)
00 14.05 СВ 1-3
{9}
10 км {гроза, ливн. осадки} 3/3 600 м
[Sc]
+18.1 +10.6 62 +19 +19 1015.1 993.6
03 14.05 З 2-4
{6}
20 км 10/10 600 м
[Cb calv]
+17.8 +12.0 69 +18 +18 1016.2 994.7 +17.7 2
06 14.05 СВ 2-3
{4}
20 км {гроза} 9/6 600 м
[Cb calv Ac trans Ci fib]
+21.5 +13.3 60 +24 +27 комфорт 1015.2 994.0 +17.3
09 14.05 ЮВ 2-3
{4}
20 км 9/8 600 м
[Cb calv Ci fib]
+25.3 +12.5 45 +27 +30 жарко 1014.6 993.6
12 14.05 В 1-3
{4}
20 км 9/3 600 м
[Cu hum Ci fib]
+27.7 +9.0 31 +28 +34 жарко 1013.1 992.4
15 14.05 СЗ 1-2
{4}
20 км 9/5 600 м
[Cu hum Ac trans Ci fib]
+26.9 +9.7 34 +27 +28 жарко 1012.3 991.5 +28.6
18 14.05 СВ 2-4
{4}
10 км 4/3 600 м
[Cb calv Ci fib]
+19.8 +12.1 61 +22 +22 комфорт 1013.4 992.1
21 14.05 ЮВ 1-3
{7}
10 км зарница 9/6 600 м
[Cb calv Ac trans Ci fib]
+17.2 +11.5 69 +18 +18 1014.0 992.5
00 15.05 В 2-3
{4}
10 км 9/4 600 м
[Sc Ac trans Ci fib]
+16.4 +11.4 72 +17 +17 1013.2 991.7
03 15.05 В 1-2
{4}
20 км 9/6 600 м
[Cb calv Ac trans Ci fib]
+16.5 +12.3 76 +17 +18 1014.2 992.6 +13.6
06 15.05 ЮВ 2-3
{4}
20 км 9/5 600 м
[Sc Ac trans Ci fib]
+20.1 +13.6 66 +23 +26 комфорт 1014.3 993.0
09 15.05 ЮВ 2-4
{4}
20 км 9/4 600 м
[Cu hum Ac trans Ci fib]
+23.1 +16.8 68 +28 +33 душно 1014.4 993.3
12 15.05 ЮВ 1-2
{5}
20 км 8/5 600 м
[Cu med, cong Ci fib]
+25.3 +12.9 46 +27 +32 жарко 1013.8 992.8
15 15.05 В 2-4
{6}
20 км {гроза} 9/3 600 м
[Cu med, cong Ci fib]
+24.6 +14.1 52 +27 +28 жарко 1013.1 992.2 +26.6
18 15.05 В 4-7
{7}
10 км гроза без осадков 10/8 600 м
[Cb calv As trans]
+20.4 +14.0 67 +23 +23 комфорт 1014.0 992.7
21 15.05 С 5-8
{8}
10 км гроза, ливневой дождь 10/10 600 м
[Cb calv]
+14.7 +13.4 92 +13 +13 1015.1 993.3
00 16.05 В 2-3
{8}
65 км в посл. час ливневой дождь {гроза} 10/10 600 м
[Cb calv]
+14.6 +13.5 93 +14 +14 1013.4 991.7
03 16.05 ЮЗ 1-2
{3}
20 км {ливн. осадки} 10/10 600 м
[Cb calv]
+15.1 +14.0 93 +16 +16 1014.0 992.4 +14.3 26
06 16.05 З 1-2
{3}
20 км {ливн. осадки} 10/10 600 м
[Cb calv]
+16.4 +14.7 90 +17 +17 1014.1 992.5
09 16.05 З 3-4
{5}
20 км {ливн. осадки} 9/9 600 м
[Cb calv]
+18.0 +14.2 78 +18 +19 1014.4 992.9
12 16.05 С 4-8
{9}
20 км {ливн. осадки} 10/10 600 м
[Cb calv]
+13.8 +11.5 86 +12 +12 1015.4 993.6
15 16.05 С 4-9
{11}
20 км 10/10 600 м
[Cb calv]
+12.0 +9.7 86 +10 +10 1017.3 995.3 +18.8 6
18 16.05 С 2-3
{9}
10 км 9/9 600 м
[Sc]
+10.8 +8.0 83 +9 +9 1018.6 996.5
21 16.05 СЗ 1-1
{3}
10 км 6/3 600 м
[Sc Ci fib]
+8.0 +6.5 90 +7 +7 1019.1 996.8
00 17.05 С 2-5
{6}
10 км ясно +6.4 +2.2 74 +4 +4 1020.4 997.8
03 17.05 С 3-5
{5}
20 км ясно +6.8 +1.9 71 +4 +6 1021.1 998.6 +5.0
06 17.05 СЗ 5-8
{8}
20 км 3/3 600 м
[Cu hum]
+11.0 +1.9 53 +9 +12 1021.3 999.1
09 17.05 СЗ 5-9
{10}
20 км 9/9 600 м
[Cu hum]
+12.5 +0.2 43 +11 +11 1020.8 998.7
12 17.05 СЗ 3-7
{11}
20 км 10/8 600 м
[Cu hum]
+12.7 -0.2 41 +12 +12 1019.8 997.7
15 17.05 СЗ 4-7
{9}
20 км 8/8 600 м
[Cu med, cong]
+13.6 +0.9 42 +12 +13 1018.9 997.0 +14.5
18 17.05 ЮЗ 3-3
{7}
10 км 8/0
[Ci fib]
+9.6 +2.3 60 +8 +8 1018.1 995.9
21 17.05 З 2-4
{4}
10 км 8/0
[Ac trans Ci fib]
+8.0 +1.9 65 +6 +6 1018.6 994.3
00 18.05 СЗ 3-5
{7}
10 км 9/9 600 м
[Sc]
+7.6 +2.1 68 +5 +5 1015.6 993.3
03 18.05 З 2-3
{5}
20 км 9/9 600 м
[Cb calv]
+8.6 +3.4 70 +7 +7 1014.4 992.3 +7.5
06 18.05 З 6-9
{9}
20 км 4/4 600 м
[Cu hum]
+13.3 +4.6 56 +11 +14 1012.8 991.0
09 18.05 СЗ 8-12
{14}
20 км 8/8 600 м
[Cu hum]
+13.5 +2.1 46 +11 +12 1012.5 990.7
12 18.05 СЗ 7-12
{14}
20 км 9/8 600 м
[Cu med, cong Ci fib]
+13.8 +0.2 39 +12 +12 1012.1 990.3
15 18.05 С 4-7
{12}
20 км 9/9 600 м
[Sc]
+11.8 -0.9 41 +10 +10 1012.4 990.4 +14.4
18 18.05 З 1-2
{8}
10 км 10/10 600 м
[Sc]
+9.2 +0.9 56 +9 +9 1012.9 990.8
21 18.05 З 2-4
{4}
10 км 10/10 600 м
[Sc]
+7.8 +0.4 59 +6 +6 1011.5 989.2
00 19.05 С 3-6
{8}
10 км 10/10 600 м
[Sc]
+5.6 +1.0 72 +3 +3 1012.1 989.7
03 19.05 СЗ 4-6
{7}
20 км ясно +4.9 +0.8 75 +1 +2 1012.6 990.2 +4.8
06 19.05 С 6-9
{11}
20 км 9/9 600 м
[Cu hum]
+7.1 -1.4 55 +3 +4 1012.8 990.5
09 19.05 СЗ 7-10
{11}
20 км 10/10 600 м
[Cb calv]
+7.4 -1.9 52 +3 +3 1013.3 991.0
12 19.05 СЗ 7-12
{12}
20 км 10/10 600 м
[Sc]
+7.6 -3.3 46 +4 +4 1014.4 992.1
15 19.05 С 4-2
{12}
20 км 10/10 600 м
[Sc]
+7.1 -2.5 50 +4 +4 1016.0 993.6 +9.4
18 19.05 СЗ 2-4
{7}
10 км 10/10 600 м
[Sc]
+6.3 -1.5 57 +4 +4 1017.1 994.6
21 19.05 З 1-2
{5}
10 км 5/5 600 м
[Sc]
+4.5 -0.3 71 +3 +3 1017.4 994.8
00 20.05 СЗ 2-3
{3}
10 км 3/3 600 м
[Sc]
+2.6 -1.0 77 -0 -0 1017.6 994.8
03 20.05 З 1-2
{3}
20 км 9/9 600 м
[Sc]
+3.9 +0.8 80 +3 +3 1018.8 996.2 +1.4
06 20.05 СЗ 4-8
{9}
20 км 10/10 600 м
[Cb calv]
+7.8 0.0 58 +5 +5 1018.4 996.0
09 20.05 СЗ 6-10
{11}
20 км 9/9 600 м
[Cu med, cong]
+11.2 +0.9 49 +9 +9 1017.7 995.6
12 20.05 СЗ 7-12
{12}
20 км 10/10 600 м
[Cb calv]
+11.3 -0.9 43 +8 +8 1018.0 995.9
15 20.05 СЗ 5-8
{12}
20 км 9/9 600 м
[Cb calv]
+10.4 +0.4 50 +8 +8 1018.2 996.0 +12.9
18 20.05 СЗ 1-2
{8}
10 км 4/4 600 м
[Sc]
+7.4 +0.2 60 +7 +7 1019.1 996.7

 

Местоположение метеостанции Канаш (Чувашия, Россия): широта 55.52 долгота 47.47 высота над уровнем моря 183 м.

В архиве по умолчанию представлена погода в Канаше за последнюю неделю. Архивные данные за месяц целиком и за предыдущие месяцы, начиная с января 2011 года, Вы можете получить, выбрав интересующий диапазон дат из раскрывающегося списка и нажав кнопку "Ввод!".


*Определитесь, кто Вы:
робот инопланетянин человек

Внимание! Время в таблицах - всемирное. Для получения местного времени необходимо прибавить поправку, которая равна 3 ч.

Смотрите также архив погоды в соседних городах и на ближайших метеорологических станциях:

Погода в Больших Кайбицах (Татарстан, Россия) (47 км)
Погода в Батырево (Чувашия, Россия) (51 км)
Погода в Чебоксарах (Чувашия, Россия) (63 км)
Погода в Вязовых (Татарстан, Россия) (74 км)
Погода в Порецком (Чувашия, Россия) (81 км)
Погода в Дрожжаном (Татарстан, Россия) (89 км)
Погода в Алатыре (Чувашия, Россия) (96 км)
Погода в Тетюшах (Татарстан, Россия) (105 км)
Погода в Козьмодемьянске (Марий-Эл, Россия) (106 км)
Погода в Казани (Татарстан, Россия) (111 км)

Пояснения к столбцам:

Ветер - указаны скорость ветра в м/с - средняя за 10 мин, порывы в срок и между сроками (в фигурных скобках) и направление, откуда дует ветер: С - северный, СВ - северо-восточный, В - восточный, ЮВ - юго-восточный, Ю - южный, ЮЗ - юго-западный, З - западный, СЗ - северо-западный.
Видимость - горизонтальная дальность видимости в метрах или километрах. При видимости от 1 до 10 км при отсутствии осадков обычно наблюдается дымка, при ухудшении видимости до 1 км и менее - туман. В сухую погоду видимость может ухудшаться дымом, пылью или мглою.
Явления - указаны атмосферные явления, наблюдавшиеся в срок или в последний час перед сроком; фигурными скобками обозначены явления, наблюдавшиеся между сроками (за 1-3 часа до срока); квадратными скобками обозначены град или гололедные отложения с указанием их диаметра в мм.
Облачность - указаны через наклонную черту общая и нижняя облачность в баллах и высота нижней границы облаков в метрах; квадратными скобками обозначены формы облаков: Ci - перистые, Cs - перисто-слоистые, Cc - перисто-кучевые, Ac - высококучевые, As - высокослоистые, Sc - слоисто-кучевые, Ns - слоисто-дождевые, Cu - кучевые, Cb - кучево-дождевые. Подробнее классификацию облаков см. в Атласе облаков (PDF).
T - Температура воздуха - температура, измеренная на высоте 2 м над землей.
Td - Температура точки росы - температура, при понижении до которой содержащийся в воздухе водяной пар достигнет насыщения.
f - Относительная влажность воздуха - влажноcть воздуха, измеренная на высоте 2 м над землей.
Te - Эффективная температура - температура, которую ощущает одетый по сезону человек в тени. Характеристика душности погоды. При расчете учитывается влияние влажности воздуха и скорости ветра на теплоощущения человека.
Tes - Эффективная температура на солнце - температура, которую ощущает человек, с поправкой на солнечный нагрев. Характеристика знойности погоды. Зависит от высоты солнца над горизонтом, облачности и скорости ветра. Ночью, в пасмурную погоду, а также при ветре 12 м/с и более поправка равна нулю.
P - Атмосферное давление - приведенное к уровню моря атмосферное давление.
Po - Атмосферное давление - измеренное на уровне метеостанции атмосферное давление.
Tmin - Минимальная температура - минимум температуры воздуха на высоте 2 м над землей.
Tmax - Максимальная температура - максимум температуры воздуха на высоте 2 м над землей.
R - Количество осадков - Количество выпавших осадков за период времени, мм. При наведении курсора мыши на число - период времени, за который выпало указанное количество осадков.
R24 - Количество осадков - Количество выпавших осадков за 24 часа, мм.
S - Снежный покров - Высота снежного покрова, см. При наведении курсора мыши на число - состояние снежного покрова и степень покрытия местности в баллах.